This is the latest recevied weather packets stored in our database for station/object KM4KMS. If no packets are shown the sender has not sent any weather packets the latest 10 day(s).
| Time | Temp. | Humidity | Pressure | Rain* | Wind** | Luminosity | Snow |
|---|---|---|---|---|---|---|---|
| 1778122150 | 10.56° C | 79% | 1013.9 hPa | 0 mm | - | 0 W/m² | - |
| 1778121847 | 10.56° C | 79% | 1013.7 hPa | 0 mm | - | 0 W/m² | - |
| 1778121543 | 11.11° C | 76% | 1013.7 hPa | 0 mm | - | 0 W/m² | - |
| 1778121240 | 11.11° C | 76% | 1013.9 hPa | 0 mm | - | 0 W/m² | - |
| 1778120937 | 11.11° C | 75% | 1013.8 hPa | 0 mm | - | 0 W/m² | - |
| 1778120634 | 11.67° C | 75% | 1013.5 hPa | 0 mm | - | 0 W/m² | - |
| 1778120330 | 11.67° C | 74% | 1013.9 hPa | 0 mm | - | 0 W/m² | - |
| 1778120025 | 11.67° C | 74% | 1013.5 hPa | 0 mm | - | 0 W/m² | - |
| 1778119723 | 11.67° C | 73% | 1013.4 hPa | 0 mm | - | 0 W/m² | - |
| 1778119420 | 11.67° C | 73% | 1013.6 hPa | 0 mm | - | 0 W/m² | - |
| 1778119117 | 11.67° C | 74% | 1013.7 hPa | 0 mm | - | 0 W/m² | - |
| 1778118815 | 11.67° C | 73% | 1013.3 hPa | 0 mm | - | 0 W/m² | - |
| 1778118511 | 11.67° C | 73% | 1013.4 hPa | 0 mm | - | 0 W/m² | - |
| 1778118208 | 11.67° C | 73% | 1013.3 hPa | 0 mm | - | 0 W/m² | - |
| 1778117904 | 12.22° C | 74% | 1013.1 hPa | 0 mm | - | 0 W/m² | - |
| 1778117602 | 11.67° C | 74% | 1013.3 hPa | 0 mm | - | 0 W/m² | - |
| 1778117299 | 12.22° C | 73% | 1013.3 hPa | 0 mm | - | 0 W/m² | - |
| 1778116994 | 12.22° C | 73% | 1013.3 hPa | 0 mm | - | 0 W/m² | - |
| 1778116687 | 12.22° C | 72% | 1013.2 hPa | 0 mm | - | 0 W/m² | - |
| 1778116383 | 12.22° C | 72% | 1013.2 hPa | 0 mm | - | 0 W/m² | - |
| 1778116083 | 12.22° C | 71% | 1013.3 hPa | 0 mm | - | 0 W/m² | - |
| 1778115779 | 12.22° C | 72% | 1013.3 hPa | 0 mm | - | 0 W/m² | - |
| 1778115476 | 12.22° C | 71% | 1013.4 hPa | 0 mm | - | 0 W/m² | - |
| 1778115172 | 12.78° C | 72% | 1013.1 hPa | 0 mm | - | 0 W/m² | - |
| 1778114869 | 12.78° C | 71% | 1013 hPa | 0 mm | - | 0 W/m² | - |
* Rain latest hour (hover to see other rain measurements)
** Current wind speed in m/s (hover to see current wind gust speed)